Starlink 1244

operational
NORAD ID: 45196 Int'l Des: 2020-012 Owner: SPXS Country: US Constellation: starlink
LEOCIRCULAR

Starlink 1244について

説明を読み込み中...

リアルタイム位置

3D地球を読み込み中...

次回通過

高度履歴

Altitude vs Time

uPlot chart will show altitude changes over time

軌道要素

1 45196U 20012U 25258.71108599 .00520838 13553-3 82159-3 0 9996
2 45196 53.0365 58.9597 0001205 322.9296 37.1651 16.03323731309254
Epoch: Sep 15, 2025 • Age: 18 hours

現在のステータス

高度 263.4 km
速度 7.75 km/s
衛星直下点 -0.82°S, 106.33°W
打ち上げ日 Feb 17, 2020
運用期間 5.5 years
タイプ internet

技術仕様

分類 Payload
質量 260.00 kg
乾燥質量 248.00 kg
総質量 260.00 kg
長さ 0.20 m
直径 2.80 m
スパン 9.00 m
形状 Box + pan
製造者 SPXS
バスタイプ Starlink
フェーズステータス In Orbit
所有者/国 SPXS/US

大規模コンステレーション

Loading constellations...